User: anonymous   Login
Location: Turtle Rock Observatory
(36.6913°N, 81.9708°W)
Time: 16:05:08
(UTC-04:00)
Language:

TITAN 4B R/B - Orbit

View from above orbital plane
View from above orbital plane
View from above satellite
View from above satellite

Ground track
Ground track

The orbit data is extracted from the following two-line orbital elements,

1 28647U 05016B   15147.96443517 0.00001500  00000-0  90691-4 0    04
2 28647  56.9966 181.8736 0135111  59.6759 300.3241 15.02811569    08
Epoch (UTC): 27 May 2015 23:08:47
Eccentricity: 0.0135111
inclination: 56.9966°
perigee height: 464 km
apogee height: 652 km
right ascension of ascending node: 181.8736°
argument of perigee: 59.6759°
revolutions per day: 15.02811569
mean anomaly at epoch: 300.3241°
orbit number at epoch: 0

The dashed part of the orbit path shows where the satellite is in the earth's shadow,  

DLR